Miscellaneous Local Product
Issued by NWS North Platte, NE

Home | Current Version | Previous Version | Text Only | Print | Product List | Glossary On
Versions: 1 2 3 4 5 6 7 8 9 10 11 12 13 14 15 16 17 18 19 20 21 22 23 24 25 26 27 28 29 30 31 32 33 34 35 36 37 38 39 40 41 42 43 44 45 46 47 48 49 50
000
AXUS43 KLBF 070410
MISLBF


WESTERN AND NORTH CENTRAL NEBRASKA HOURLY WEATHER ROUNDUP
NATIONAL WEATHER SERVICE NORTH PLATTE NE
1100 PM CDT MON JUL 06 2015

***STATIONS NOT REPORTING VARIABLES SUCH AS SKY/WEATHER OR
PRESSURE ARE PROVIDED BY THE NEBRASKA DEPARTMENT OF
ROADS...RAWS...AND APRS NETWORKS...AND ARE NOT UNDER
NATIONAL WEATHER SERVICE QUALITY CONTROL***

...OBSERVATIONS IN AND NEAR THE EASTERN PANHANDLE OF NEBRASKA...

CITY           SKY/WX    TMP DP  RH WIND       PRES   REMARKS
PINE RIDGE     MOCLDY    60  56  86 E5        30.22R
CHADRON        PTCLDY    61  57  87 SE5       30.22R
ALLIANCE       CLOUDY    60  55  83 SE6       30.25R
SIDNEY         CLOUDY    63  53  70 E8        30.29R HAZE
WHITECLAY        N/A     58  55  91 CALM        N/A
CRESCENT LAKE    N/A     63  54  72 E5          N/A
BIG SPRINGS      N/A     67  56  67 E6          N/A
$$

...OBSERVATIONS IN NORTH CENTRAL NEBRASKA...

CITY           SKY/WX    TMP DP  RH WIND       PRES   REMARKS
VALENTINE      CLEAR     61  55  81 CALM      30.20R
THEDFORD       CLEAR     63  55  75 CALM      30.22R
AINSWORTH      CLEAR     63  55  76 CALM      30.20R
O`NEILL        CLEAR     60  56  85 N5        30.17R
ORD            PTCLDY    61  54  77 N8        30.15R
BROKEN BOW     PTCLDY    61  56  83 N7        30.17R
VALENTINE NWR    N/A     62  54  76 NE3         N/A
SPRINGVIEW       N/A     61  56  83 CALM        N/A
BREWSTER         N/A     64  58  81 CALM        N/A
ROSE             N/A     73  71  96 NE6         N/A
NEWPORT          N/A     61  57  86 CALM        N/A
SARGENT          N/A     61  56  83 CALM        N/A
CHAMBERS         N/A     61  52  71 N3          N/A
EWING            N/A     60  56  86 CALM        N/A
$$

...OBSERVATIONS IN SOUTHWEST NEBRASKA AND FAR NORTHEAST COLORADO...

CITY           SKY/WX    TMP DP  RH WIND       PRES   REMARKS
WRAY           CLOUDY    67  53  59 NE6       30.24R
HOLYOKE        CLOUDY    66  54  63 E7        30.25R
IMPERIAL       MOCLDY    63  52  67 NE7       30.22R
OGALLALA       CLOUDY    67  54  61 E7        30.23R
NORTH PLATTE   MOCLDY    61  55  81 N6        30.20R
MCCOOK         PTCLDY    62  55  77 N10       30.17R HAZE
LEXINGTON      PTCLDY    60  56  85 N7        30.18R
PAXTON           N/A     66  57  73 NE3         N/A
GOTHENBURG       N/A     65  52  62 CALM        N/A
CALLAWAY         N/A     62  56  80 N6          N/A
$$

...NORTH PLATTE AREA...

CITY           SKY/WX    TMP DP  RH WIND       PRES   REMARKS
AIRPORT        MOCLDY    61  55  81 N6        30.20R
DOWNTOWN         N/A     63  55  76 CALM        N/A
HILLCREST        N/A     61  55  82 NE7         N/A
$$

...SOME WEATHER OBSERVATIONS FROM AROUND THE REGION...

CITY           SKY/WX    TMP DP  RH WIND       PRES   REMARKS
DENVER         CLOUDY    61  54  77 E6        30.29R FOG
LARAMIE        PTCLDY    53  50  89 SE14      30.32S
CHEYENNE       CLOUDY    56  53  90 E6        30.32R FOG
SCOTTSBLUFF    CLOUDY    65  58  78 E5        30.25R HAZE
RAPID CITY     CLOUDY    63  57  81 N5        30.21R
PIERRE         CLEAR     61  55  81 NE6       30.14R
WINNER         FAIR      64  55  72 E5        30.17R
SIOUX FALLS    CLEAR     60  53  77 N6        30.12R
OMAHA          CLOUDY    69  61  75 N14       30.04R HAZE
GRAND ISLAND   CLEAR     63  56  78 N8        30.14R HAZE
KANSAS CITY    CLOUDY    72  71  97 N3        29.93R
WICHITA        HVY RAIN  73  71  93 N14       29.97R FOG
HAYS           CLOUDY    72  55  56 NE15      30.09R
LIBERAL        CLOUDY    70  61  73 N7        30.12R
GOODLAND       CLOUDY    64  54  69 NE7       30.21R HAZE
$$



USA.gov is the U.S. government's official web portal to all federal, state and local government web resources and services.